Main page
METAR-TAF:

METAR-TAF

Airports :

Kinloss, Scotland

RAF Kinloss

latitude: 57-39N, longitude: 003-34W, elevation: 7 m

Current weather observation

The report was made 46 minutes ago, at 12:50 UTC
Wind 6 kt from the West
Temperature 13°C
Humidity 88%
Pressure 1004 hPa
Visibility 10 km or more

METAR: EGQK 221250Z AUTO 28006KT 9999 OVC050/// 13/11 Q1004

Time: 14:36 (13:36 UTC)


TAF: missing

Weather observations and forecasts of more than 4000 airports (METAR and TAF reports).

The available stations are represented by yellow and red dots on the map.

Hover mouse over dot to see the name of the station.

Then click to see weather observations and forecasts.

To change the map : click on the green buttons with a black cross to zoom in, on the green button with a dash to zoom out, or on the green arrows for adjacent maps.


METAR-TAF: